Wetbulb
51.82 52.18 52.59 52.89 53.06 53.38 53.88 54.05 54.07 54.28 54.64 54.91 55.07 55.22 56.01 55.99 54.59 53.12 48.56 53.62 54.81 56.36 53.61 49.32 49.61 48.34 49.36 46.01 45.89 43.82 40.60 35.74 34.62 35.10 36.92 41.59 39.30 43.26 44.80 42.50 43.55 44.42 44.14 46.51 48.59
51.40 51.75 52.01 52.42 52.70 53.21 53.63 53.68 53.81 54.16 54.50 54.61 54.60 54.84 55.92 55.08 49.09 47.16 53.81 57.21 56.91 54.80 49.59 47.50 45.77 46.86 44.29 43.47 44.11 42.74 38.26 34.59 38.09 38.90 38.02 40.34 40.10 40.77 40.15 41.13 41.74 43.40 46.84 47.69 48.00
51.13 51.30 51.57 51.93 52.26 52.94 53.40 53.37 53.61 54.05 54.17 53.93 54.06 54.65 55.72 53.31 46.20 45.24 54.90 56.78 56.11 52.87 49.65 47.83 46.83 45.72 42.00 43.46 41.20 40.39 36.18 38.11 39.32 41.08 41.55 39.58 39.90 41.87 39.54 38.16 42.26 42.09 44.94 47.64 48.08
50.77 50.94 51.42 51.58 52.03 52.84 53.06 53.13 53.48 53.83 53.68 53.81 54.08 55.21 55.25 49.25 39.25 47.66 54.78 55.90 54.85 52.70 49.48 47.41 45.90 43.10 40.28 38.54 40.39 36.29 38.88 39.63 40.56 41.38 39.72 38.60 41.74 40.10 40.27 41.31 46.25 47.60 48.47 47.87 46.53
50.54 50.65 51.19 51.51 51.96 52.62 52.58 52.88 53.43 53.75 53.53 53.79 54.57 55.40 50.38 45.23 43.24 50.26 53.31 53.94 52.35 50.88 47.44 45.71 43.60 42.26 38.99 39.08 39.76 38.13 38.38 39.66 41.61 41.17 40.10 42.13 39.76 39.11 40.40 45.52 47.83 48.32 47.76 47.29 47.92
50.56 50.74 51.04 51.37 51.77 52.17 52.26 52.77 53.39 53.56 53.07 54.34 54.85 53.89 47.47 41.07 48.80 50.42 51.22 51.86 50.97 50.10 47.55 47.03 43.68 44.52 40.80 39.13 38.58 39.50 38.96 39.12 40.67 41.88 40.69 39.49 39.27 41.42 42.69 45.85 45.74 47.71 47.39 48.77 49.41
50.83 50.87 50.85 51.30 51.82 51.83 52.17 52.80 53.48 52.90 52.75 53.87 54.56 49.76 46.20 42.32 49.26 50.15 51.69 50.16 50.64 49.80 46.68 46.95 46.51 44.27 43.34 39.62 41.49 38.86 36.39 37.80 39.06 41.43 39.67 41.77 38.10 38.61 42.22 44.01 44.54 44.88 45.82 47.11 48.08
50.93 50.87 51.05 51.28 51.70 51.63 52.23 52.91 53.01 51.88 52.98 54.02 52.88 48.71 42.11 49.31 50.34 48.40 50.03 49.71 51.50 50.78 49.07 48.72 49.07 45.64 43.24 42.61 38.37 36.15 37.57 36.13 38.53 40.50 40.52 40.87 34.26 39.51 42.47 42.18 41.27 41.80 40.27 44.29 47.26
51.24 50.88 51.04 51.20 51.12 51.50 52.18 51.94 50.90 50.38 52.77 52.63 48.62 46.53 40.56 50.22 45.34 47.03 49.22 47.04 49.25 49.47 49.63 48.43 46.75 42.48 40.96 38.29 36.76 36.45 33.70 32.18 36.01 39.65 39.54 38.65 34.27 39.38 42.35 41.79 40.96 40.02 40.57 42.93 45.74
51.59 51.10 51.02 50.97 50.80 51.59 50.76 49.74 48.08 47.34 46.01 46.78 45.03 43.00 42.90 40.51 44.10 45.85 48.62 48.38 47.33 47.06 45.77 45.53 44.10 41.50 40.72 40.11 32.27 31.23 31.49 32.15 32.13 37.46 39.17 36.70 35.59 39.34 42.10 41.06 39.94 40.11 40.71 42.15 43.45
52.05 51.34 50.93 50.55 50.42 50.13 45.62 44.79 42.89 41.31 41.93 37.26 37.62 38.85 40.14 44.33 45.66 45.52 46.52 46.78 46.70 44.76 40.82 41.04 41.23 36.23 35.47 36.03 33.60 31.76 31.27 31.73 34.64 37.41 36.72 34.62 35.92 37.66 41.28 40.73 39.03 39.22 39.61 40.70 42.18
52.33 51.44 50.69 50.24 50.27 47.47 45.23 40.11 39.11 41.84 35.71 38.82 39.49 40.61 42.11 42.80 40.85 44.11 47.49 43.21 42.30 38.75 39.19 39.68 36.44 38.06 37.35 35.91 34.92 33.13 32.64 34.12 34.49 36.05 36.26 34.07 35.67 37.84 38.87 39.07 39.02 37.72 37.90 38.80 40.78
52.57 51.25 50.21 49.84 48.45 45.88 43.24 41.42 45.14 43.83 37.31 36.48 38.95 39.51 40.03 43.36 39.27 40.93 44.67 42.77 39.97 37.90 37.29 36.61 36.41 38.47 38.14 36.91 35.13 35.00 33.60 33.02 33.96 35.40 35.89 34.44 36.13 35.89 39.88 39.84 40.02 39.51 38.93 38.33 38.24
52.68 50.62 49.13 48.84 43.56 42.35 41.16 44.12 45.23 43.59 37.98 32.58 35.77 39.04 41.05 41.58 38.01 42.99 43.88 42.28 39.28 36.61 37.25 36.79 38.26 38.09 37.41 35.68 36.02 32.03 37.54 35.91 34.58 34.57 32.04 33.65 31.28 34.90 36.76 37.53 38.82 38.42 38.37 37.36 37.45
52.19 49.59 47.26 48.17 43.22 39.83 42.44 44.68 43.61 42.81 32.99 32.67 35.39 42.54 41.14 38.79 38.52 39.99 43.12 41.54 36.96 36.73 36.49 34.18 35.06 35.22 34.95 35.53 36.55 34.10 36.00 35.17 35.32 34.48 32.35 31.52 31.98 35.18 36.89 36.57 36.11 37.39 37.95 37.95 37.99
51.23 49.17 46.96 43.97 44.15 42.50 44.18 42.63 42.58 36.44 30.97 30.22 34.92 35.01 36.13 36.65 36.79 39.70 39.70 42.31 39.91 36.79 36.98 35.61 38.45 37.39 36.66 36.77 36.60 37.48 35.53 35.60 34.48 32.78 28.69 29.21 30.05 34.45 35.02 35.02 35.95 37.09 38.34 37.81 37.93
50.21 47.49 44.64 43.46 40.04 43.70 43.28 41.08 34.36 33.32 29.91 30.98 31.26 34.10 33.26 32.87 34.24 36.52 35.30 34.37 34.77 33.58 32.62 33.01 34.90 36.78 36.98 35.23 36.87 36.16 33.49 30.65 28.58 28.54 27.01 29.78 29.35 33.43 35.67 37.22 36.87 35.89 37.62 37.67 37.88
48.11 45.08 42.34 41.67 42.93 42.65 40.57 37.24 32.97 26.51 28.62 29.65 31.59 32.14 31.37 31.74 32.70 33.83 33.97 32.84 33.51 32.28 30.57 30.69 29.87 34.23 36.13 35.24 33.29 33.50 32.69 29.82 23.56 24.38 27.44 29.25 27.87 32.88 36.87 38.35 38.22 36.89 37.27 37.43 37.46
45.74 42.04 41.39 41.66 41.79 40.03 38.62 33.07 34.57 31.15 30.97 30.02 30.39 29.28 29.32 31.04 31.72 32.17 31.66 32.22 32.57 33.53 32.55 30.38 29.24 35.10 35.69 36.60 35.93 33.58 31.87 33.04 27.16 21.12 24.79 29.41 30.59 32.78 35.74 36.41 36.46 36.54 36.62 36.10 36.16
41.99 40.20 39.42 41.10 40.20 39.21 34.76 32.86 30.86 29.08 31.19 31.79 33.69 28.57 32.00 28.85 30.05 31.31 30.02 32.42 32.02 34.32 35.27 30.88 29.38 32.25 35.20 36.82 35.63 35.03 35.27 29.90 30.50 24.06 23.02 27.44 27.49 32.73 31.69 34.51 36.35 35.56 36.64 36.32 35.45
41.59 37.54 39.75 40.46 38.55 37.10 33.35 32.00 26.22 29.39 31.82 31.16 28.50 27.53 27.85 29.29 27.53 29.04 29.65 31.62 33.33 33.15 35.36 33.77 31.58 29.74 33.06 31.78 30.58 33.35 32.88 30.66 30.29 28.95 23.79 22.74 30.11 36.40 36.83 37.86 37.10 37.06 36.96 37.15 36.29
38.43 33.34 39.89 38.68 33.65 24.63 31.51 26.39 28.83 28.82 32.07 30.98 32.67 30.08 30.45 28.67 28.67 29.24 29.94 31.23 33.68 34.96 32.35 34.30 32.06 29.51 29.44 33.32 34.80 33.96 32.32 31.66 29.01 25.06 27.29 25.51 29.81 35.58 36.75 38.86 39.15 37.50 36.90 37.35 36.49
34.79 34.82 41.12 37.80 32.50 29.61 22.41 24.16 26.88 28.38 30.36 29.63 30.25 31.46 31.42 29.42 29.22 29.19 29.75 32.61 32.86 34.09 33.15 34.29 30.68 31.94 27.70 30.00 32.36 31.46 32.59 32.87 31.02 29.55 25.85 25.72 31.29 34.68 35.68 36.14 38.15 37.40 37.35 36.50 35.90
35.26 32.00 34.25 35.53 32.36 31.49 26.70 25.98 25.67 29.08 29.83 30.69 30.47 32.28 29.95 27.57 25.59 27.91 29.24 31.53 32.29 34.08 35.91 35.32 29.00 27.67 29.20 28.70 31.09 28.04 30.74 32.85 32.12 27.69 28.19 28.64 32.17 32.41 34.67 35.39 37.55 36.71 37.16 37.14 35.71
33.42 33.18 33.56 30.06 31.53 29.86 33.17 26.73 25.13 25.62 29.23 30.74 29.08 30.54 29.84 25.65 26.00 26.02 27.29 29.62 31.23 34.23 33.00 32.83 28.11 24.47 28.47 29.23 28.54 28.75 29.64 31.22 30.08 31.98 28.39 31.51 30.23 35.04 37.09 37.11 38.77 38.68 36.73 35.40 34.21
33.22 32.42 34.26 31.12 30.07 30.43 31.06 26.45 28.97 27.12 29.08 28.01 27.73 30.67 30.43 28.02 31.30 26.02 29.22 29.36 29.84 30.64 31.43 29.76 27.32 21.27 22.61 22.17 22.73 22.18 27.22 28.96 30.32 31.38 31.69 32.16 31.42 38.80 39.02 39.44 38.61 36.55 35.09 34.23 34.49
39.25 38.82 40.93 32.07 29.96 32.85 32.92 29.30 30.74 32.12 29.56 32.50 31.80 30.30 28.76 30.60 31.98 32.30 31.74 31.77 32.20 30.23 27.46 27.18 23.62 23.21 25.66 16.83 17.74 22.52 23.53 25.88 28.33 30.54 31.54 28.26 34.57 37.39 35.29 35.22 36.60 36.63 35.37 34.86 35.21
MSLP
1023.45 1023.45 1023.26 1023.02 1022.78 1022.56 1022.20 1022.17 1021.88 1021.52 1021.31 1021.08 1020.77 1020.54 1020.30 1019.98 1019.53 1019.00 1019.07 1020.26 1019.69 1018.91 1018.36 1017.90 1017.46 1017.52 1017.31 1018.06 1018.54 1018.48 1017.99 1019.09 1020.10 1020.27 1020.19 1020.33 1020.26 1019.71 1019.79 1019.18 1018.48 1018.14 1017.54 1016.85 1016.48
1023.44 1023.39 1023.32 1023.06 1022.96 1022.70 1022.32 1022.11 1021.98 1021.62 1021.26 1021.06 1020.80 1020.53 1020.32 1020.08 1019.66 1019.42 1020.71 1020.05 1019.62 1019.08 1018.41 1017.92 1017.75 1017.65 1018.20 1019.05 1019.29 1018.75 1019.54 1020.90 1021.51 1021.48 1021.20 1021.02 1021.03 1020.68 1020.13 1019.05 1018.18 1017.28 1016.97 1016.74 1016.66
1023.41 1023.37 1023.28 1023.12 1022.88 1022.69 1022.46 1022.11 1021.95 1021.67 1021.30 1021.02 1020.70 1020.43 1020.26 1020.11 1019.81 1020.65 1020.59 1020.15 1019.64 1019.17 1018.96 1018.67 1018.45 1018.21 1018.93 1019.87 1020.68 1020.58 1021.22 1022.07 1022.07 1022.23 1022.20 1021.94 1021.53 1021.42 1020.81 1019.35 1018.59 1017.92 1016.51 1016.26 1016.06
1023.39 1023.36 1023.34 1023.15 1022.86 1022.59 1022.46 1022.15 1021.88 1021.57 1021.25 1020.98 1020.62 1020.32 1020.17 1019.96 1020.95 1021.06 1020.88 1020.38 1019.89 1019.25 1018.92 1018.75 1018.55 1018.93 1019.93 1020.67 1021.63 1021.80 1022.52 1022.68 1022.69 1022.64 1022.68 1022.29 1021.95 1021.19 1020.90 1019.86 1018.91 1017.76 1016.61 1015.83 1015.82
1023.34 1023.27 1023.29 1023.13 1022.87 1022.55 1022.39 1022.09 1021.80 1021.47 1021.20 1020.83 1020.53 1020.26 1020.22 1020.18 1021.36 1021.25 1021.06 1020.63 1020.05 1019.70 1019.36 1019.14 1019.12 1019.76 1020.57 1021.46 1021.82 1021.84 1022.56 1022.87 1022.90 1022.87 1022.69 1022.24 1021.56 1021.15 1020.32 1019.70 1018.62 1017.17 1016.60 1016.03 1015.54
1023.22 1023.23 1023.14 1023.03 1022.78 1022.51 1022.36 1022.09 1021.64 1021.36 1021.11 1020.87 1020.50 1020.24 1020.06 1020.72 1021.61 1021.47 1021.08 1020.81 1020.62 1020.21 1020.09 1019.81 1020.14 1020.21 1021.13 1021.99 1022.04 1022.58 1022.61 1022.69 1022.65 1022.36 1022.07 1021.65 1020.78 1020.64 1020.58 1020.19 1018.87 1017.76 1017.33 1016.63 1015.87
1023.11 1023.13 1022.93 1022.89 1022.76 1022.40 1022.26 1022.01 1021.60 1021.27 1021.05 1020.82 1020.60 1020.29 1020.46 1021.76 1021.67 1021.44 1021.15 1021.18 1021.20 1020.91 1020.68 1020.98 1020.95 1020.60 1021.47 1022.29 1022.94 1022.70 1022.40 1022.44 1022.54 1022.15 1021.97 1021.48 1020.63 1020.51 1020.88 1020.02 1018.93 1018.65 1018.12 1017.25 1016.46
1022.97 1022.98 1022.91 1022.66 1022.56 1022.37 1022.07 1021.78 1021.50 1021.23 1020.98 1020.81 1020.59 1020.38 1021.28 1021.74 1021.67 1021.54 1021.26 1021.18 1021.24 1021.34 1021.38 1021.49 1021.33 1021.34 1021.92 1022.81 1022.90 1022.45 1022.40 1022.02 1022.37 1022.10 1022.07 1021.24 1021.07 1020.96 1021.05 1020.19 1019.92 1019.36 1019.05 1017.89 1016.85
1022.77 1022.92 1022.69 1022.48 1022.27 1022.21 1021.85 1021.64 1021.45 1021.23 1021.04 1020.86 1020.62 1020.43 1021.70 1021.88 1021.93 1021.90 1021.66 1021.38 1021.35 1021.55 1021.57 1021.67 1021.54 1021.92 1022.74 1022.49 1022.73 1022.93 1022.65 1022.81 1022.24 1022.50 1022.21 1021.84 1021.68 1021.63 1021.20 1020.77 1020.57 1019.72 1018.71 1018.18 1017.07
1022.70 1022.83 1022.56 1022.33 1022.11 1021.96 1021.83 1021.55 1021.39 1021.16 1021.04 1020.93 1020.87 1021.13 1022.15 1022.25 1022.27 1022.14 1021.81 1021.60 1021.30 1021.30 1021.44 1021.28 1021.41 1021.77 1022.43 1022.56 1023.15 1023.50 1023.50 1023.14 1022.84 1022.55 1022.24 1022.21 1022.17 1021.92 1021.51 1021.32 1020.97 1020.25 1019.24 1018.35 1017.46
1022.56 1022.65 1022.50 1022.26 1021.86 1021.83 1021.77 1021.63 1022.05 1021.91 1021.90 1022.44 1022.42 1022.28 1022.41 1022.45 1022.45 1022.21 1022.03 1021.68 1021.26 1021.13 1021.25 1021.62 1021.57 1022.37 1023.28 1023.58 1024.07 1024.25 1024.23 1023.94 1023.19 1023.05 1022.84 1022.43 1022.28 1021.99 1021.91 1021.77 1021.35 1020.97 1019.97 1018.86 1018.24
1022.41 1022.39 1022.45 1022.20 1021.82 1021.88 1021.85 1022.11 1022.94 1023.12 1023.21 1023.03 1022.74 1022.73 1022.78 1022.74 1022.28 1022.16 1021.98 1021.83 1021.28 1021.37 1021.70 1021.79 1022.31 1023.38 1023.86 1024.06 1024.15 1024.33 1024.12 1023.82 1023.57 1023.21 1023.16 1022.68 1022.11 1021.87 1022.05 1022.29 1022.32 1021.93 1020.97 1020.17 1018.91
1022.19 1022.20 1022.29 1022.19 1022.06 1022.11 1022.25 1022.88 1023.29 1023.30 1022.85 1023.35 1023.12 1022.86 1022.98 1022.86 1022.63 1022.47 1022.25 1022.02 1021.72 1021.69 1021.84 1021.78 1023.06 1023.62 1023.68 1023.77 1023.78 1023.63 1023.43 1023.47 1023.45 1023.14 1022.93 1022.52 1021.82 1021.50 1021.56 1022.13 1022.21 1022.23 1021.80 1021.20 1020.87
1021.98 1022.17 1022.05 1022.22 1022.67 1022.55 1022.69 1023.03 1023.20 1023.18 1023.20 1023.53 1023.06 1023.15 1023.08 1022.84 1022.88 1022.84 1022.74 1022.53 1022.13 1022.12 1022.20 1022.47 1023.26 1023.43 1023.45 1023.24 1023.43 1023.00 1023.12 1023.13 1022.95 1022.56 1021.89 1022.30 1021.34 1021.15 1021.62 1021.88 1022.22 1022.49 1022.37 1022.16 1021.73
1021.58 1021.95 1022.07 1022.16 1022.34 1022.80 1023.17 1023.01 1023.00 1022.95 1023.35 1023.95 1023.23 1023.17 1023.08 1023.00 1023.23 1022.86 1023.03 1022.43 1022.43 1022.48 1022.70 1022.73 1022.92 1023.13 1023.13 1023.07 1023.26 1022.94 1023.02 1022.73 1022.35 1022.02 1021.71 1021.53 1021.22 1020.69 1021.53 1021.84 1022.75 1023.13 1023.32 1023.32 1022.88
1021.19 1021.71 1022.00 1022.32 1022.60 1023.43 1023.26 1023.08 1022.76 1023.16 1023.31 1023.62 1023.31 1023.18 1023.17 1023.30 1023.33 1023.19 1022.95 1022.88 1023.16 1022.83 1022.75 1022.95 1023.20 1023.25 1023.28 1023.14 1023.05 1022.84 1022.54 1022.34 1022.02 1021.46 1021.07 1021.25 1021.32 1020.58 1021.34 1022.45 1022.99 1023.24 1023.46 1023.87 1023.71
1021.14 1021.55 1022.11 1022.52 1022.84 1023.30 1023.10 1022.85 1023.08 1023.17 1024.08 1023.77 1023.60 1023.37 1023.44 1023.60 1023.54 1023.52 1023.39 1023.55 1023.62 1023.42 1023.15 1023.05 1023.05 1023.21 1023.46 1022.84 1022.79 1022.41 1021.73 1021.38 1021.23 1020.75 1020.58 1020.97 1020.97 1020.86 1021.65 1022.38 1023.04 1023.46 1023.53 1023.94 1024.26
1021.35 1021.55 1022.69 1023.22 1023.27 1023.26 1022.86 1022.90 1023.05 1023.40 1023.43 1023.64 1023.72 1023.82 1023.70 1024.17 1024.23 1024.02 1023.91 1024.11 1024.19 1023.73 1023.61 1023.28 1023.30 1023.28 1023.53 1023.37 1023.12 1022.58 1022.08 1021.58 1021.45 1021.02 1020.70 1020.75 1020.51 1020.76 1021.81 1022.66 1023.06 1023.49 1023.73 1024.07 1024.39
1021.14 1022.19 1022.49 1023.35 1023.54 1023.54 1022.87 1023.18 1022.62 1023.04 1023.01 1023.46 1023.94 1024.08 1024.34 1024.55 1024.58 1024.41 1024.64 1024.53 1024.57 1024.29 1023.93 1023.82 1023.65 1023.65 1023.79 1023.73 1023.58 1022.64 1022.41 1022.57 1021.98 1022.51 1021.45 1020.15 1020.47 1021.26 1021.81 1022.28 1023.06 1023.28 1023.82 1024.04 1024.59
1020.76 1021.89 1022.70 1023.36 1023.65 1023.31 1023.11 1023.27 1023.52 1023.65 1023.59 1023.44 1023.68 1024.33 1024.59 1025.00 1025.05 1024.94 1025.02 1025.17 1025.12 1025.02 1024.59 1024.33 1024.29 1023.99 1023.95 1023.86 1023.79 1023.17 1023.19 1022.72 1022.06 1021.61 1020.71 1019.85 1019.67 1019.61 1020.88 1021.23 1021.89 1022.43 1023.01 1023.89 1024.40
1020.56 1021.81 1023.02 1023.32 1023.69 1023.34 1023.62 1023.91 1024.43 1024.27 1023.89 1023.66 1023.74 1024.39 1024.62 1024.93 1025.36 1025.22 1025.44 1025.78 1025.60 1025.52 1025.02 1024.67 1024.36 1024.53 1024.37 1023.96 1023.75 1023.45 1023.12 1022.97 1022.64 1022.16 1021.54 1020.46 1018.88 1018.91 1019.37 1020.22 1021.10 1021.88 1022.59 1023.42 1024.30
1020.26 1021.90 1022.98 1023.61 1023.83 1024.33 1024.23 1023.95 1024.28 1024.58 1024.04 1023.99 1023.69 1023.83 1024.29 1025.00 1025.10 1025.42 1025.53 1025.82 1026.02 1025.91 1025.57 1025.24 1024.84 1024.26 1024.39 1024.48 1024.41 1023.96 1023.54 1023.17 1022.67 1022.54 1021.96 1021.59 1019.34 1019.26 1019.69 1020.20 1020.86 1021.55 1022.44 1023.17 1024.13
1020.21 1021.98 1023.00 1022.96 1023.51 1024.05 1024.88 1024.53 1024.67 1024.69 1024.15 1023.98 1023.87 1023.75 1024.40 1025.01 1025.47 1025.92 1026.14 1026.40 1026.33 1026.21 1026.17 1025.73 1025.55 1025.12 1024.85 1025.15 1024.75 1024.19 1023.77 1023.47 1023.14 1022.76 1021.72 1021.19 1019.12 1019.69 1020.13 1020.46 1020.94 1021.39 1022.09 1022.91 1023.59
1019.33 1021.53 1022.76 1022.61 1022.80 1022.47 1023.45 1024.05 1024.50 1024.51 1024.08 1023.92 1023.90 1023.95 1024.48 1025.14 1025.73 1025.92 1026.24 1026.76 1026.85 1026.68 1026.84 1026.65 1026.40 1026.12 1025.35 1024.64 1024.44 1024.29 1023.66 1023.49 1022.91 1022.47 1020.98 1019.74 1018.80 1019.35 1019.85 1020.16 1020.71 1021.42 1022.11 1022.54 1023.20
1017.67 1019.11 1019.52 1021.49 1021.94 1021.70 1021.60 1022.60 1023.43 1023.84 1023.95 1023.97 1024.05 1023.67 1023.71 1024.84 1026.04 1025.95 1026.39 1026.84 1027.29 1027.28 1027.53 1027.64 1027.53 1027.21 1025.69 1025.41 1025.22 1024.42 1023.68 1023.19 1022.24 1021.17 1020.41 1018.61 1018.19 1018.06 1018.62 1019.20 1019.73 1020.80 1021.93 1022.70 1023.19
1016.87 1018.11 1019.30 1019.96 1019.88 1021.09 1021.04 1021.75 1021.84 1022.54 1022.42 1023.29 1023.40 1023.15 1023.54 1023.82 1024.27 1024.86 1025.66 1026.23 1026.82 1027.97 1028.06 1028.39 1028.76 1028.62 1027.11 1026.06 1025.82 1024.56 1023.11 1022.54 1021.82 1020.93 1019.78 1019.14 1016.70 1017.17 1017.56 1018.38 1019.54 1020.38 1021.28 1022.04 1022.62
1015.61 1016.02 1016.16 1019.34 1019.66 1019.89 1019.48 1020.31 1020.53 1020.51 1022.25 1022.07 1022.48 1023.04 1023.85 1024.15 1024.61 1025.04 1025.27 1025.77 1026.00 1027.18 1028.67 1029.12 1029.38 1029.50 1027.81 1026.42 1025.27 1023.78 1021.09 1021.12 1020.61 1019.75 1018.88 1018.20 1015.66 1016.16 1016.78 1017.55 1018.06 1019.11 1020.05 1020.58 1021.48
Wind_Speed
3 4 6 7 8 8 9 11 11 11 11 11 10 9 9 8 5 13 17 11 12 19 8 1 6 5 9 7 7 2 4 6 6 7 9 11 12 8 11 17 14 12 16 21 22
2 4 5 7 8 9 9 10 10 11 10 11 10 9 8 5 4 18 12 14 16 16 4 5 6 9 6 6 6 5 4 3 2 6 9 14 12 14 9 17 18 20 18 15 18
2 3 5 6 7 8 9 9 10 11 11 9 8 8 7 2 2 7 15 14 15 10 6 3 4 5 8 7 8 6 5 3 2 7 9 10 13 6 12 12 18 24 31 25 22
2 3 5 6 8 9 10 10 10 10 10 9 8 8 5 2 2 4 14 14 12 13 1 7 5 5 6 7 4 8 4 2 6 7 5 6 13 10 8 15 23 26 27 26 21
3 3 5 7 8 9 9 10 11 10 9 7 7 8 2 6 5 6 11 11 6 6 12 5 8 5 7 7 5 9 5 2 7 8 2 11 7 7 8 20 21 16 12 12 15
4 4 5 7 8 9 10 11 10 9 7 8 7 5 1 6 2 6 5 5 10 9 10 9 6 9 11 5 3 3 2 2 5 11 1 11 4 7 17 23 19 16 18 9 9
5 5 5 7 9 10 11 11 10 7 5 6 7 2 11 6 1 3 4 4 5 5 5 5 4 1 7 6 2 3 2 1 7 12 5 12 3 16 18 20 14 15 14 15 13
6 5 6 6 9 11 11 12 9 4 4 5 4 1 5 1 1 4 4 2 5 5 5 4 7 10 5 7 3 2 1 5 6 14 6 8 9 15 18 18 17 18 17 15 10
6 5 5 6 8 11 12 10 4 5 4 6 1 1 5 1 1 4 4 2 2 3 4 4 1 5 3 4 4 7 4 4 2 5 6 11 8 15 15 14 14 17 15 13 10
7 6 5 6 8 10 10 3 3 1 3 1 3 3 1 2 3 4 2 2 2 1 1 2 4 4 5 0 4 3 2 1 4 7 7 10 11 12 14 14 13 11 14 13 16
8 7 6 6 7 8 2 1 2 2 9 4 2 3 1 4 2 4 3 2 0 4 3 4 4 7 6 6 4 5 1 3 3 3 6 6 8 11 13 14 15 16 19 19 17
9 6 6 6 6 3 2 3 3 2 8 4 2 3 1 1 1 8 4 0 2 4 1 2 5 4 7 5 2 3 2 2 5 5 3 6 5 8 9 12 12 15 17 19 21
9 6 5 7 1 2 4 6 1 3 4 2 2 2 2 3 3 6 5 0 3 3 5 3 4 6 2 3 3 3 2 2 3 4 2 8 3 6 11 10 14 16 16 18 17
9 5 3 5 3 2 3 3 2 1 3 2 1 3 1 1 3 2 3 2 2 3 3 4 3 2 2 2 3 2 3 3 4 5 3 4 3 3 9 10 16 17 17 16 17
10 4 3 5 4 1 4 3 3 1 1 2 2 2 2 1 1 3 2 1 3 4 3 3 3 1 2 2 1 4 1 7 5 4 3 2 5 4 5 7 10 13 13 14 14
11 7 5 2 2 2 3 2 3 5 5 2 1 1 1 4 2 4 2 4 1 3 1 3 1 1 4 3 4 5 2 2 2 3 2 3 4 3 4 3 4 8 10 11 12
12 9 4 1 3 4 3 2 4 3 2 2 2 1 2 2 2 4 3 4 1 2 3 1 2 1 1 4 5 4 3 2 2 1 3 1 3 2 1 2 3 5 6 8 9
15 9 7 3 1 4 2 4 3 1 5 1 2 3 2 1 2 3 2 3 2 0 3 1 2 2 3 3 3 4 4 3 5 4 3 2 2 2 2 3 3 2 4 5 7
16 3 3 2 2 2 2 3 5 5 6 10 4 2 1 2 1 1 2 1 1 2 1 3 2 1 2 1 3 3 3 2 3 2 3 1 2 3 5 7 7 5 1 2 3
5 3 3 3 2 2 4 3 3 1 4 2 3 0 3 1 1 1 1 1 2 2 4 3 1 1 1 2 2 2 2 1 1 4 4 1 4 1 12 12 9 7 5 4 1
4 4 2 2 2 2 4 4 3 3 1 3 5 5 2 4 1 2 2 1 2 1 1 3 2 2 2 0 1 3 2 2 0 2 3 5 1 1 8 13 13 10 7 5 4
4 3 2 2 3 2 3 6 3 4 2 2 3 4 4 5 4 3 2 2 1 1 1 1 2 1 2 2 1 1 1 1 2 3 1 2 4 3 3 8 11 11 9 8 5
5 4 2 1 4 3 2 4 2 4 4 4 4 2 2 4 3 2 2 1 1 1 1 2 1 2 2 1 1 4 3 3 3 1 6 2 1 1 5 6 11 12 11 9 9
6 5 1 1 0 5 7 4 5 1 3 1 5 3 4 4 0 6 4 1 1 1 3 2 1 3 4 3 3 4 6 8 6 4 4 9 7 5 7 11 12 12 12 11 10
2 4 5 8 5 4 2 7 7 6 0 2 1 3 6 5 1 3 2 3 2 2 3 2 2 2 7 7 5 9 11 12 16 13 10 3 10 6 12 16 18 14 13 12 11
8 7 2 3 8 8 4 8 10 6 9 5 5 11 6 6 4 8 8 5 3 2 3 2 1 1 6 2 3 9 15 17 19 19 21 20 30 18 14 10 14 16 16 16 16
2 2 3 7 6 5 6 9 10 13 2 2 9 8 7 5 3 5 7 7 9 9 5 2 4 1 5 4 8 9 9 16 8 9 18 16 14 8 7 15 18 20 21 21 19
Wind_Direction
2 360 360 1 3 2 7 357 358 357 355 352 353 355 354 347 24 61 41 353 343 340 330 253 50 50 53 61 36 324 64 55 21 351 323 340 333 329 314 290 300 284 286 297 315
339 348 350 355 353 355 360 355 350 348 349 346 345 347 347 342 33 48 354 350 346 346 6 41 52 54 64 39 30 31 66 71 328 307 294 310 314 316 309 319 314 310 301 293 298
303 332 342 346 348 350 350 349 346 343 343 342 341 341 340 304 98 5 346 349 353 4 52 75 77 63 67 49 13 34 77 168 4 323 309 295 305 317 300 302 320 309 302 296 294
279 320 329 337 341 346 344 342 339 341 342 338 338 339 328 219 93 336 337 344 351 9 68 60 47 69 69 69 31 102 114 54 345 334 319 320 320 318 308 301 308 296 283 282 285
259 303 318 331 335 339 337 337 334 337 337 333 334 339 245 67 68 332 335 348 344 2 40 56 59 93 93 104 94 90 167 241 333 318 226 329 358 319 305 320 319 339 324 289 277
244 281 311 323 328 333 331 329 330 334 333 328 343 327 203 80 340 328 338 357 15 30 37 35 81 102 92 80 49 112 177 290 326 352 81 326 257 312 334 334 331 352 347 336 335
243 269 303 321 323 329 327 323 324 324 328 335 355 31 65 94 312 340 25 22 5 20 63 51 99 99 131 117 112 100 140 201 5 353 4 338 311 349 339 331 327 343 325 337 342
237 266 300 318 326 325 324 319 316 310 317 328 352 65 81 10 241 14 359 60 49 48 71 87 86 82 43 121 79 34 127 12 14 359 3 330 328 343 337 337 354 355 338 331 342
228 257 288 314 327 324 325 314 310 310 324 331 170 51 102 93 8 335 1 16 8 61 67 99 41 70 113 126 106 25 42 2 352 24 11 17 323 314 336 350 358 349 315 332 15
227 252 282 313 329 328 327 306 347 332 346 239 96 139 73 24 323 330 344 359 37 65 169 41 58 87 50 122 77 80 350 308 328 352 333 10 350 343 356 4 351 333 336 4 28
224 248 283 311 332 342 347 163 195 92 40 46 40 83 52 331 264 10 355 306 56 66 57 26 70 60 80 58 80 108 139 289 275 337 318 357 346 342 354 5 356 359 1 7 18
218 242 280 308 334 44 81 95 51 59 96 24 66 76 55 324 117 19 332 313 44 75 320 117 74 94 118 132 128 152 165 262 288 309 327 351 330 332 1 10 14 6 2 6 10
210 225 282 312 357 53 88 114 35 287 77 36 26 45 336 335 77 352 352 46 79 81 43 89 86 142 211 190 250 197 229 221 292 322 254 309 245 360 11 16 18 19 11 17 11
198 225 284 310 230 182 84 125 106 292 92 34 53 44 335 27 72 331 2 348 88 120 120 75 128 183 256 283 285 281 201 246 270 280 14 4 339 10 5 359 17 15 19 7 5
179 181 40 210 123 160 109 137 128 208 212 72 50 335 13 24 40 50 7 281 97 119 226 109 170 174 272 10 263 349 289 273 259 265 229 57 270 23 9 6 14 1 11 15 7
164 163 136 103 77 101 141 124 185 56 240 133 323 40 131 25 36 316 57 48 59 118 45 79 39 310 346 291 223 307 247 141 178 221 194 18 297 23 357 327 333 345 11 15 7
153 121 92 59 146 168 157 169 66 175 35 203 157 103 90 28 59 9 40 37 17 115 26 34 112 88 317 298 172 294 253 245 204 199 42 69 243 29 260 294 272 344 356 10 4
133 107 59 51 358 176 178 68 167 29 200 139 144 106 138 9 49 24 109 114 55 285 115 84 129 19 14 23 330 352 351 20 322 339 358 215 243 140 227 192 271 305 337 18 12
129 89 88 43 339 257 117 121 206 190 149 153 115 124 98 143 266 136 36 70 342 306 349 158 143 105 41 344 315 33 39 1 108 65 271 312 206 192 225 222 220 237 235 33 30
125 120 101 356 308 213 87 220 130 180 121 151 114 304 148 92 117 37 215 168 161 289 318 161 122 19 65 205 109 341 101 232 9 348 308 222 279 10 205 215 220 224 196 163 171
108 124 113 23 228 53 175 162 180 213 196 153 140 129 107 136 167 149 150 184 243 160 351 160 275 133 238 31 110 158 170 94 33 340 324 315 175 216 205 193 199 206 206 186 172
132 125 108 197 93 310 167 153 148 179 173 143 99 117 139 165 136 166 175 9 107 179 128 62 309 203 84 138 280 251 221 243 258 148 140 303 278 165 233 195 193 192 197 182 184
112 107 121 185 168 168 175 110 128 161 184 159 127 115 119 122 120 122 155 20 161 165 182 174 283 297 161 175 209 232 180 156 120 169 207 212 260 169 265 222 197 192 193 188 180
124 123 97 115 269 152 150 142 141 214 135 120 116 114 122 118 320 162 158 130 81 87 48 307 115 275 300 21 79 210 198 202 197 198 207 228 275 209 230 219 200 197 200 196 190
101 192 180 171 223 191 97 133 141 157 95 204 68 199 154 123 142 163 148 133 55 78 49 18 260 303 279 278 268 258 245 206 210 216 231 190 237 239 211 212 209 200 189 193 200
137 150 104 113 130 137 199 205 162 168 147 196 206 176 179 147 179 179 152 183 167 129 160 60 254 319 283 340 265 269 252 235 238 241 250 259 271 249 232 208 202 201 196 202 201
144 67 129 153 153 154 194 168 196 140 209 131 158 128 184 188 109 91 96 103 140 152 152 139 141 273 273 336 312 272 229 200 197 228 222 225 237 208 178 205 202 200 199 201 201